User: anonymous   Login
Location: Unspecified
(0.0000°N, 0.0000°E)
Time: 20:11:00
(UTC+00:00)
Language:

UNISAT 2 - Orbit

View from above orbital plane
View from above orbital plane
View from above satellite
View from above satellite

Ground track
Ground track

The orbit data is extracted from the following two-line orbital elements,

1 27608U 02058D   19341.50177834 -.00000037  00000-0  14902-4 0  9992
2 27608  64.5534 160.5098 0051510 217.9773 141.7695 14.78034002914139
Epoch (UTC): 07 December 2019 12:02:33
Eccentricity: 0.0051510
inclination: 64.5534°
perigee height: 599 km
apogee height: 671 km
right ascension of ascending node: 160.5098°
argument of perigee: 217.9773°
revolutions per day: 14.78034002
mean anomaly at epoch: 141.7695°
orbit number at epoch: 91413

The dashed part of the orbit path shows where the satellite is in the earth's shadow,  

DLR